Location: Arboucave
(43.6130°N, 0.4343°W)
Time: 11:31:37
(UTC+00:00)

SJ 16-02 - Pass Details

Date: 17 November 2025
Orbit: 585 x 594 km, 75.0° (Epoch: 11 December)

Event Time Altitude Azimuth Distance (km) Brightness Sun altitude
Rises 18:06:42 0° 189° (S) 2,821 5.0 -16.6°
Reaches altitude 10° 18:08:55 10° 186° (S) 1,924 4.1 -17.0°
Maximum altitude 18:13:09 62° 106° (ESE) 670 1.2 -17.8°
Enters shadow 18:15:20 27° 34° (NNE) 1,146 2.3 -18.1°
